Flag for U.S.A. Weather past 2 weeks in Ann Arbor, Michigan, U.S.A.

Now
65 °F

Clear.


Feels Like: 65 °F
Forecast: 61 / 82 °F
Wind: 3 mph from North

Location: Ann Arbor Municipal Airport

Current Time: Aug 2, 2014 at 1:12:44 AM

Latest Report: Aug 2, 2014 at 12:53 AM


Visibility: 10 mi

Pressure: 30.09 "Hg

Humidity: 85%

Dew point: 60 °F

Location of Ann ArborLocation

Historic Weather in Ann Arbor — Graph

°F

Ann Arbor temperature yesterday

Maximum temperature yesterday: 82 °F (at 12:53 PM)
Minimum temperature yesterday: 54 °F (at 3:53 AM)
Average temperature yesterday: 68 °F

Past Weeks' High & Low Weather Summary

 TemperatureHumidityPressure
High85 °F (Jul 22, 12:53 PM)97% (Jul 20, 1:53 AM)30.24 "Hg (Jul 20, 1:53 AM)
Low43 °F (Jul 29, 1:53 AM)36% (Jul 24, 5:53 PM)29.58 "Hg (Jul 27, 3:53 PM)
Average66 °F71%30.01 "Hg
* Reported Jul 17 11:53 PM — Aug 1 11:53 PM, Ann Arbor, Weather by CustomWeather, © 2014

Note: Actual official high and low records may vary slightly from our data, if they occured in-between our weather recording intervals... More about our weather records

Advertising

Ann Arbor weather history for previous 24 hours

 ConditionsComfort  
Time TempWeatherWind HumidityBarometerVisibility
11:53 PM
Aug 1
64 °FClear.3 mph84%30.09 "Hg10 mi
10:53 PM66 °FClear.No wind75%30.09 "Hg10 mi
9:53 PM72 °FSunny.5 mph64%30.09 "Hg10 mi
8:53 PM70 °FSunny.No wind76%30.08 "Hg10 mi
7:53 PM76 °FSunny.3 mph64%30.07 "Hg10 mi
6:53 PM79 °FSunny.No wind52%30.07 "Hg10 mi
5:53 PM80 °FSunny.6 mph49%30.06 "Hg10 mi
4:53 PM80 °FSunny.6 mph51%30.06 "Hg10 mi
3:53 PM81 °FSunny.7 mph45%30.08 "Hg10 mi
2:53 PM77 °FLight rain. Partly sunny.7 mph66%30.08 "Hg10 mi
1:53 PM81 °FPassing clouds.5 mph44%30.09 "Hg10 mi
12:53 PM82 °FPassing clouds.8 mph44%30.09 "Hg10 mi
11:53 AM79 °FSunny.3 mph50%30.10 "Hg10 mi
10:53 AM75 °FSunny.3 mph64%30.10 "Hg10 mi
9:53 AM70 °FSunny.N/A73%30.10 "Hg10 mi
8:53 AM66 °FSunny.5 mph81%30.10 "Hg9 mi
7:53 AM59 °FPartly sunny.No wind93%30.09 "Hg7 mi
6:53 AM54 °FPassing clouds.No wind97%30.08 "Hg7 mi
5:53 AM54 °FFog.No wind93%30.05 "Hg0 mi
5:03 AM56 °FFog.3 mph93%30.07 "Hg1 mi
4:56 AM57 °FFog.3 mph90%30.06 "Hg2 mi
3:53 AM54 °FFog.No wind93%30.04 "Hg0 mi
3:00 AM55 °FFog.No wind90%30.06 "Hg0 mi
1:53 AM57 °FClear.No wind96%30.05 "Hg9 mi
Weather by CustomWeather, © 2014

See weather overviewHow to use our weather pages